Location: Sungai Bunut
(2.6333°N, 113.7333°E)
Time: 10:27:01
(UTC+00:00)

Courier 1B - Pass Details

Date: 09 December 2023
Orbit: 962 x 1209 km, 28.3° (Epoch: 03 March)

Event Time Altitude Azimuth Distance (km) Brightness Sun altitude
Exits shadow 19:41:35 65° 114° (ESE) 1,286 8.1 -36.6°
Drops below altitude 10° 19:48:20 10° 67° (ENE) 3,034 10.5 -35.1°
Sets 19:51:05 0° 65° (ENE) 3,961 11.2 -34.5°
